Temperature
17 17 17 17 17 17 17 17 17 17 17 17 17 17 17 17 17 17 17 17 17 17 17 17 17 17 17 17 17 17 17 17 17 17 17 16 16 16 16 16 16 16 16
17 17 17 17 17 17 16 16 16 16 16 16 16 16 16 16 16 17 17 17 17 17 17 17 17 17 17 17 17 17 17 17 17 17 16 16 16 16 16 16 16 16 16
17 17 17 17 16 16 16 16 16 16 16 16 16 16 16 16 16 16 16 16 16 16 16 16 16 16 16 17 17 17 17 16 16 16 16 16 16 16 16 16 16 16 16
17 17 17 16 16 16 16 16 16 16 16 16 16 16 16 16 16 16 16 16 16 16 16 16 16 16 16 16 16 16 16 16 16 16 16 16 16 16 16 16 16 16 16
17 17 17 16 16 16 16 16 16 16 16 16 16 16 16 16 16 16 16 16 16 16 16 16 16 16 16 16 16 16 16 16 16 16 16 16 16 16 16 16 16 16 16
17 16 16 16 16 16 16 16 16 16 16 16 16 16 16 16 16 16 16 16 16 16 16 16 16 16 16 16 16 16 16 16 16 16 16 16 16 16 16 16 16 16 16
16 16 16 16 16 15 15 15 15 15 15 16 16 16 16 16 16 16 16 16 16 16 16 16 16 16 16 15 15 16 16 16 15 15 15 15 15 15 15 16 16 16 16
16 16 16 15 15 15 15 15 15 15 15 15 16 16 16 16 16 16 16 16 16 16 16 16 15 15 15 15 15 15 15 15 15 15 15 15 15 15 15 15 15 15 15
16 16 16 15 15 15 15 15 15 15 15 15 15 16 16 15 15 15 16 15 16 15 15 15 15 15 15 15 15 15 15 15 15 15 15 15 15 15 15 15 15 15 15
16 16 15 15 15 15 15 15 15 15 15 15 15 15 15 15 15 15 15 15 15 15 15 15 15 15 15 15 15 15 15 15 15 15 15 15 15 15 15 15 15 15 15
16 16 15 15 15 15 15 15 15 15 15 15 15 15 15 15 15 15 15 15 15 15 15 15 15 15 15 15 15 15 15 15 15 15 15 15 15 15 15 14 14 15 15
16 16 15 15 15 15 15 15 15 15 15 15 15 15 15 15 15 15 15 15 15 15 15 15 15 15 15 15 15 15 15 14 14 14 14 14 14 14 14 14 14 14 14
16 16 16 15 15 15 15 15 15 15 14 14 14 15 15 15 15 15 15 15 15 15 15 15 15 15 15 15 15 14 14 14 14 14 14 14 14 14 14 14 14 14 14
16 16 16 16 15 15 15 15 15 14 14 14 14 14 14 14 14 14 15 15 14 14 15 15 15 15 14 14 14 14 14 14 14 14 14 14 14 14 14 14 14 14 14
16 16 16 16 15 15 15 15 15 15 14 14 14 14 14 14 14 14 14 14 14 14 14 14 14 14 14 14 14 14 14 14 14 14 14 14 14 14 14 14 14 14 14
16 16 16 16 16 15 15 15 15 15 14 14 14 14 14 14 14 14 14 14 14 14 14 14 14 14 14 14 14 14 13 13 13 13 13 13 13 13 13 14 14 14 14
17 16 16 16 16 16 15 15 15 15 15 14 14 14 14 14 14 14 14 14 14 14 14 14 14 14 14 14 14 14 13 13 13 13 13 13 13 13 13 13 13 13 14
17 17 16 16 16 16 16 16 15 15 15 15 14 14 14 14 14 14 14 14 14 13 13 14 14 14 14 14 14 14 14 13 13 13 13 13 13 13 13 13 13 13 13
17 17 16 16 16 16 16 16 16 15 15 15 15 14 14 14 14 14 14 14 14 14 13 14 14 14 14 14 14 14 14 13 13 13 13 13 13 13 13 13 13 13 13
17 17 17 16 16 16 16 16 16 15 15 15 15 15 15 14 14 14 14 14 14 14 14 14 14 14 14 14 13 14 14 14 13 13 13 13 13 13 13 13 13 13 13
17 17 17 16 16 16 16 16 15 15 15 15 15 15 15 15 15 14 14 14 14 14 14 13 14 14 14 14 14 13 13 13 13 13 13 13 13 13 13 13 13 13 13
17 16 17 16 16 16 16 16 16 15 15 15 15 15 15 15 14 14 14 14 14 14 14 13 13 13 14 14 14 13 13 13 13 13 13 13 13 13 13 13 13 13 13
17 16 16 16 16 16 16 16 15 15 15 15 15 15 15 15 14 14 14 14 14 13 13 13 13 13 13 14 13 13 13 13 13 13 12 13 13 13 13 13 13 13 13
16 16 16 16 16 16 15 15 15 15 15 15 14 14 14 14 14 14 14 14 14 14 13 13 13 13 13 13 13 12 12 12 12 13 12 12 13 13 13 13 13 13 13
16 16 16 15 15 15 15 15 14 14 14 14 14 14 14 14 14 14 13 13 13 14 13 13 13 13 13 13 12 12 12 12 12 13 13 12 12 13 13 13 13 13 12
16 16 15 15 15 15 15 14 14 13 14 14 14 14 13 13 13 13 13 13 13 13 13 13 13 13 13 13 12 12 12 11 11 12 12 12 12 12 12 13 13 13 12
Wind_Speed
5 4 4 4 4 3 3 2 2 1 1 1 3 5 6 8 9 9 9 12 14 15 15 15 15 15 14 13 13 13 12 12 12 13 13 13 13 13 12 12 12 11 11
7 5 4 4 3 3 3 4 3 2 2 2 2 3 5 7 9 9 9 10 13 14 15 15 15 15 15 15 14 13 13 13 13 13 14 14 14 13 13 12 12 12 11
9 7 4 3 3 4 5 5 4 4 3 2 2 2 3 5 7 8 9 9 10 12 14 14 14 14 15 15 15 14 14 14 14 14 14 14 15 14 14 13 13 12 12
11 8 4 3 4 6 5 3 3 3 3 3 2 1 1 2 4 6 7 8 8 8 11 13 13 14 14 14 14 15 15 15 15 15 14 14 15 15 15 14 14 13 13
11 8 4 4 6 5 3 3 3 2 2 2 1 1 1 1 1 3 4 6 8 8 9 10 12 12 13 13 13 13 14 14 14 14 14 14 14 15 15 15 15 14 14
10 9 5 5 6 4 3 3 3 2 1 1 2 2 2 1 0 1 1 3 5 6 7 7 8 10 11 12 12 12 12 13 14 14 14 14 14 15 15 15 15 15 15
10 8 5 4 4 4 3 3 2 3 2 2 3 4 4 4 2 1 1 2 2 3 5 6 6 6 6 9 10 11 11 12 13 14 15 14 14 15 16 17 16 16 16
9 8 6 4 4 4 4 4 3 3 2 2 3 3 3 4 4 3 1 1 2 2 2 4 5 5 5 4 5 8 10 11 11 12 14 14 14 14 15 16 17 17 17
8 8 7 5 4 4 4 3 4 4 2 2 2 4 4 2 2 4 3 2 1 1 1 3 4 5 5 4 3 4 7 8 8 9 10 12 14 15 16 16 17 17 18
8 9 8 7 5 4 4 3 4 3 4 2 2 2 2 4 3 1 3 3 2 1 0 1 3 4 5 5 4 3 4 5 5 5 6 7 9 12 14 15 15 16 17
7 8 8 7 5 4 4 4 4 4 3 3 1 1 2 3 3 3 0 3 3 2 1 1 2 3 6 6 5 4 4 4 4 4 4 5 6 9 11 12 13 14 15
4 5 8 6 6 5 5 4 4 5 3 3 2 2 2 2 2 3 2 1 2 3 2 1 1 3 5 7 6 6 5 5 4 4 5 5 6 7 8 10 12 13 14
4 6 5 5 4 5 5 4 4 4 4 3 3 2 2 2 3 3 3 1 1 3 3 2 2 3 5 7 7 7 6 6 6 6 6 6 6 7 8 9 10 12 13
6 7 7 6 6 7 6 5 4 3 3 3 3 3 2 1 2 3 4 3 1 2 2 3 2 2 4 7 8 8 8 8 8 9 9 9 9 8 8 9 9 10 11
7 7 7 7 6 6 6 5 3 4 4 3 3 3 2 1 1 2 3 4 4 1 2 3 2 2 3 6 9 9 9 10 11 12 12 12 12 12 11 11 10 10 11
7 9 8 8 7 6 6 5 4 3 4 3 3 3 2 1 1 1 2 2 3 4 3 3 3 3 3 5 9 10 11 12 13 14 15 16 16 16 15 14 13 12 12
8 9 9 9 8 8 7 6 5 5 5 4 3 4 4 3 2 1 1 1 2 3 3 4 3 3 2 4 5 9 11 12 13 15 16 18 19 19 19 18 17 16 15
9 10 9 9 9 8 8 8 7 6 6 6 6 5 5 4 4 3 3 3 3 3 4 4 3 3 4 5 5 5 8 10 12 14 16 17 19 20 20 20 20 19 18
9 9 9 9 9 8 8 8 8 7 7 8 7 7 7 6 6 5 5 4 3 3 4 4 4 3 4 4 4 4 5 6 10 12 14 15 17 18 19 20 21 22 21
9 9 9 9 8 8 8 8 8 7 7 7 7 8 8 8 8 8 6 6 5 4 4 4 5 4 4 4 2 4 5 4 5 7 10 11 12 14 16 18 20 21 22
9 9 9 8 8 7 8 8 8 8 8 7 7 7 8 10 11 9 7 7 6 5 5 5 5 4 5 4 4 4 5 5 5 4 4 5 6 7 11 14 17 19 21
8 8 9 9 9 9 11 12 10 7 7 8 8 7 8 9 11 14 14 12 10 8 8 6 6 7 8 7 5 5 4 4 5 4 3 5 3 6 8 12 16 19 20
8 8 9 9 9 10 12 13 13 8 8 8 8 7 7 7 8 7 10 12 12 15 14 10 10 11 9 8 6 6 7 7 8 5 3 6 5 7 9 15 19 20 21
7 8 8 8 8 9 12 13 12 9 8 8 8 8 8 7 6 6 6 7 8 9 11 11 10 12 11 10 9 9 9 8 7 6 5 6 7 7 8 11 19 21 22
7 7 6 7 8 8 11 12 11 6 7 8 7 7 7 7 9 8 5 7 8 9 12 15 17 17 19 19 13 6 6 6 8 7 6 6 6 7 6 8 15 21 22
6 5 6 6 7 7 8 11 12 5 6 6 5 5 8 8 8 7 6 6 9 10 8 9 9 13 13 15 17 12 10 10 8 7 6 6 6 5 5 6 7 10 13
Wind_Direction
145 141 138 133 135 137 133 109 96 95 99 97 101 116 135 149 159 167 184 196 199 197 193 187 186 185 185 183 180 178 176 175 174 173 172 171 169 168 166 164 163 161 159
141 133 125 115 109 114 119 106 94 88 76 76 80 114 140 153 164 174 186 203 208 205 200 194 193 191 191 190 187 186 183 182 180 180 179 178 177 175 174 174 173 172 170
133 128 120 112 105 102 99 81 66 68 67 63 55 76 132 156 167 175 184 199 208 207 204 199 198 199 198 197 194 194 193 190 187 187 187 187 186 184 183 182 181 180 180
131 121 116 109 102 96 93 87 65 67 59 61 56 35 80 147 167 182 189 198 204 207 208 206 205 206 205 205 202 201 201 199 195 194 194 194 193 191 190 189 189 189 189
130 123 118 113 104 91 83 87 70 84 72 45 36 67 51 127 165 171 179 194 201 206 209 212 213 214 214 214 210 207 208 206 202 201 201 200 200 199 197 196 197 197 196
131 123 117 110 106 94 80 78 73 62 87 69 44 41 11 9 88 122 149 169 190 196 200 207 214 219 220 223 221 216 214 211 208 207 207 206 206 205 204 203 203 204 203
135 127 118 113 109 109 112 102 86 62 37 48 64 29 8 14 33 56 83 100 115 151 171 191 200 211 221 227 229 224 222 220 216 214 213 213 214 213 212 211 210 210 211
142 140 129 130 124 113 97 82 82 82 31 52 104 86 37 8 0 10 20 95 91 100 135 173 181 189 204 214 227 227 225 224 224 223 222 220 219 218 218 218 217 217 217
147 143 142 136 131 126 122 108 99 102 76 19 79 129 128 189 316 340 353 20 63 78 88 150 162 174 181 189 206 220 221 224 229 232 235 232 228 225 224 223 223 222 222
155 152 148 142 134 132 134 132 111 109 108 61 13 44 130 150 137 4 335 341 351 44 174 152 148 158 164 170 180 180 195 212 224 234 240 240 238 231 229 229 229 229 227
163 158 153 143 136 138 141 130 116 109 114 120 97 66 64 64 89 128 249 323 339 321 289 199 171 170 173 170 175 187 190 195 210 233 245 249 244 238 236 238 238 237 235
169 165 159 151 149 147 148 146 137 127 126 122 113 106 120 118 128 129 154 255 296 300 309 294 220 191 186 183 190 191 194 204 218 233 246 251 253 254 249 247 247 245 244
181 185 165 159 158 163 162 151 144 146 145 136 139 135 136 156 161 148 136 162 306 307 326 316 270 209 193 188 191 193 201 212 225 239 250 256 260 264 263 260 257 253 252
190 183 173 173 172 170 166 156 152 165 155 153 154 150 144 166 158 154 153 143 74 340 329 299 310 247 211 199 203 205 217 227 235 244 252 259 262 265 266 266 265 262 260
190 180 175 176 176 172 167 158 163 179 171 174 176 172 170 206 164 159 155 151 147 162 279 286 294 281 243 225 222 216 229 237 242 249 254 259 262 264 264 262 262 263 263
182 173 175 177 177 175 169 164 170 180 177 191 190 179 194 214 195 160 158 154 151 159 214 261 259 266 252 244 238 232 239 245 248 253 256 259 262 263 263 262 261 260 259
178 178 180 179 179 180 176 173 187 184 190 207 209 197 212 206 206 216 189 164 165 158 205 269 267 274 261 260 263 251 253 253 257 259 260 261 262 263 262 260 260 259 259
181 180 178 181 187 187 184 184 196 196 197 208 216 210 220 212 215 225 215 213 209 193 193 245 274 276 261 256 255 259 260 257 256 263 265 266 265 263 261 260 258 257 257
181 180 178 185 191 191 191 194 197 202 205 211 212 210 216 207 217 222 218 219 223 219 199 219 257 261 267 268 272 275 269 268 268 268 268 268 266 265 264 261 258 256 255
181 183 184 188 191 194 197 199 198 203 210 216 216 216 216 210 215 218 221 221 219 222 219 228 252 262 264 272 259 266 282 272 269 274 274 274 272 272 269 266 263 261 258
191 187 187 193 193 196 203 201 203 209 213 221 224 224 224 220 218 216 219 217 214 222 228 233 248 259 262 262 253 246 256 272 274 256 269 275 274 277 278 274 270 266 262
198 192 195 198 201 211 210 206 204 214 215 220 227 232 236 234 234 231 231 224 212 217 225 229 240 243 253 245 243 239 242 260 277 256 231 263 250 262 266 267 266 265 263
199 203 206 203 209 218 217 214 211 210 217 222 224 229 241 241 232 235 242 243 237 233 225 226 236 244 247 240 232 242 236 234 245 241 216 264 256 259 263 265 264 263 262
205 210 212 209 213 223 219 221 220 215 221 225 223 222 227 241 239 230 241 251 251 248 241 236 238 246 246 242 229 236 242 248 255 251 209 250 259 255 263 263 265 262 261
210 212 210 211 217 227 218 218 216 215 226 234 232 228 225 232 243 236 235 252 263 266 261 250 244 247 251 250 241 239 243 244 261 260 212 221 253 258 259 260 262 259 257
208 205 216 217 218 225 220 218 211 212 227 241 244 243 238 240 252 246 234 244 260 265 268 274 264 261 256 256 248 233 235 241 251 259 230 212 242 242 267 260 253 253 253
Height
1555 1556 1557 1558 1559 1560 1561 1562 1563 1564 1565 1565 1566 1566 1567 1567 1568 1569 1569 1570 1571 1572 1572 1573 1575 1576 1577 1578 1579 1580 1581 1582 1583 1584 1584 1585 1587 1588 1589 1590 1591 1592 1593
1555 1556 1557 1558 1558 1559 1560 1561 1562 1563 1564 1564 1565 1565 1566 1567 1567 1568 1569 1569 1570 1571 1572 1573 1574 1575 1576 1577 1578 1579 1580 1581 1582 1583 1584 1585 1586 1587 1588 1589 1590 1591 1592
1554 1555 1556 1557 1558 1558 1559 1560 1561 1562 1563 1564 1564 1565 1565 1566 1567 1567 1568 1569 1570 1570 1571 1572 1573 1574 1575 1576 1577 1578 1579 1580 1581 1582 1583 1585 1586 1587 1588 1589 1590 1591 1592
1554 1554 1555 1556 1557 1557 1558 1559 1560 1561 1562 1563 1564 1564 1565 1565 1566 1567 1568 1568 1569 1570 1570 1571 1572 1573 1573 1574 1576 1577 1578 1579 1580 1581 1582 1583 1584 1586 1587 1588 1589 1590 1591
1553 1553 1554 1555 1556 1556 1557 1558 1559 1560 1561 1562 1563 1564 1564 1565 1565 1566 1567 1567 1568 1569 1569 1570 1570 1571 1572 1573 1574 1575 1576 1577 1578 1579 1581 1582 1583 1584 1585 1587 1588 1589 1590
1552 1552 1553 1554 1555 1555 1556 1557 1558 1560 1561 1562 1562 1563 1564 1565 1565 1566 1567 1567 1567 1568 1568 1569 1569 1570 1570 1571 1572 1573 1574 1574 1576 1577 1579 1580 1581 1582 1584 1585 1586 1587 1589
1551 1551 1552 1553 1554 1555 1556 1557 1558 1559 1560 1561 1562 1563 1564 1565 1565 1566 1566 1567 1567 1567 1568 1568 1568 1569 1569 1570 1570 1571 1571 1572 1573 1574 1576 1577 1579 1580 1582 1583 1584 1586 1587
1550 1550 1551 1552 1553 1554 1555 1556 1557 1558 1559 1560 1561 1562 1563 1565 1565 1566 1566 1567 1567 1567 1567 1567 1567 1568 1568 1568 1569 1569 1569 1570 1571 1572 1574 1575 1576 1578 1579 1580 1582 1583 1584
1549 1550 1551 1552 1553 1554 1555 1556 1557 1558 1559 1560 1560 1562 1562 1563 1564 1566 1566 1566 1566 1566 1566 1566 1567 1567 1567 1567 1567 1567 1567 1568 1569 1569 1571 1572 1573 1574 1576 1577 1578 1580 1581
1548 1549 1550 1551 1552 1553 1554 1555 1556 1558 1558 1559 1560 1561 1562 1562 1563 1565 1566 1566 1566 1566 1566 1566 1566 1566 1566 1566 1566 1566 1566 1567 1567 1568 1568 1569 1570 1571 1572 1573 1574 1576 1578
1547 1548 1549 1550 1551 1552 1553 1554 1556 1557 1558 1559 1560 1560 1561 1562 1562 1563 1564 1565 1565 1565 1565 1565 1565 1565 1565 1565 1565 1565 1565 1566 1566 1566 1566 1567 1567 1568 1568 1569 1571 1572 1573
1546 1547 1548 1550 1551 1551 1552 1553 1554 1556 1557 1558 1559 1560 1560 1561 1561 1562 1563 1563 1564 1564 1564 1565 1565 1564 1564 1564 1564 1564 1564 1564 1564 1564 1564 1564 1564 1565 1565 1566 1567 1568 1569
1544 1546 1547 1549 1550 1551 1551 1552 1553 1554 1556 1557 1558 1559 1560 1560 1561 1561 1562 1562 1563 1563 1563 1563 1563 1563 1563 1563 1563 1563 1563 1563 1562 1562 1562 1562 1561 1562 1562 1562 1563 1564 1565
1543 1545 1546 1547 1548 1549 1550 1551 1552 1553 1554 1555 1557 1558 1558 1559 1560 1560 1561 1561 1561 1562 1562 1562 1562 1562 1562 1562 1562 1562 1561 1561 1560 1559 1559 1559 1558 1558 1559 1559 1559 1560 1561
1542 1543 1545 1546 1547 1548 1549 1550 1551 1552 1553 1554 1555 1556 1557 1558 1558 1559 1559 1560 1560 1560 1560 1560 1560 1561 1561 1560 1560 1560 1559 1559 1558 1557 1556 1555 1555 1555 1555 1555 1555 1556 1556
1540 1541 1543 1544 1545 1546 1547 1548 1549 1550 1552 1553 1554 1554 1555 1556 1557 1557 1558 1558 1558 1558 1558 1558 1558 1559 1558 1558 1558 1557 1557 1556 1555 1554 1553 1552 1552 1552 1552 1552 1552 1552 1552
1537 1539 1541 1542 1543 1544 1545 1546 1548 1549 1550 1551 1552 1553 1553 1554 1555 1555 1556 1556 1556 1556 1556 1556 1556 1556 1556 1556 1555 1555 1554 1553 1552 1551 1550 1549 1549 1549 1548 1548 1548 1548 1548
1535 1536 1538 1539 1540 1542 1543 1544 1545 1546 1547 1548 1549 1550 1551 1552 1552 1553 1553 1554 1554 1554 1554 1553 1553 1553 1553 1553 1552 1551 1551 1550 1549 1548 1547 1546 1545 1545 1545 1544 1544 1544 1543
1532 1533 1535 1536 1537 1538 1540 1541 1542 1544 1545 1546 1547 1548 1549 1549 1549 1550 1550 1551 1551 1551 1551 1550 1550 1550 1549 1549 1549 1548 1547 1546 1545 1544 1544 1543 1542 1541 1541 1540 1540 1539 1539
1528 1529 1531 1533 1534 1535 1536 1538 1539 1540 1541 1542 1543 1544 1545 1546 1546 1547 1547 1547 1548 1547 1547 1547 1546 1545 1545 1545 1544 1543 1542 1542 1541 1541 1540 1539 1538 1537 1536 1535 1535 1535 1534
1525 1526 1528 1529 1530 1531 1532 1534 1535 1536 1537 1538 1539 1540 1541 1542 1542 1543 1543 1544 1544 1543 1543 1542 1541 1541 1540 1540 1540 1539 1538 1537 1536 1536 1535 1534 1533 1532 1531 1530 1530 1529 1529
1521 1523 1524 1525 1526 1526 1527 1529 1531 1532 1533 1534 1535 1536 1537 1537 1538 1538 1539 1539 1539 1539 1538 1537 1536 1535 1535 1535 1535 1534 1533 1531 1529 1530 1529 1528 1527 1526 1525 1524 1524 1523 1523
1516 1518 1519 1520 1521 1523 1524 1525 1527 1528 1529 1529 1530 1531 1532 1532 1533 1533 1533 1533 1533 1533 1533 1533 1531 1530 1529 1529 1529 1528 1527 1525 1524 1524 1523 1520 1520 1518 1518 1517 1517 1516 1516
1510 1512 1514 1515 1516 1518 1519 1520 1522 1523 1523 1524 1525 1526 1526 1527 1527 1527 1527 1527 1527 1526 1526 1526 1525 1524 1523 1523 1523 1522 1520 1518 1516 1516 1516 1513 1512 1511 1511 1510 1510 1509 1509
1506 1507 1509 1510 1511 1512 1514 1515 1517 1517 1518 1518 1519 1520 1520 1521 1521 1521 1521 1520 1519 1519 1519 1518 1517 1516 1516 1516 1515 1514 1512 1511 1507 1507 1508 1506 1504 1503 1502 1501 1501 1501 1501
1501 1503 1504 1505 1505 1506 1508 1509 1510 1511 1512 1512 1513 1514 1514 1515 1515 1515 1514 1513 1512 1511 1511 1510 1509 1508 1507 1507 1507 1506 1504 1502 1499 1497 1499 1498 1496 1496 1492 1492 1493 1493 1493